| time (UTC) | temp C | wind direction | speed KPH | gust KPH | rain 1hr cm | rain 24hr cm | rain mn cm | humidity % | barometer mb |
| 20260905224359 | 34 | 52 | 1.6 | 3.2 | 0.00 | 0.00 | 0.00 | 55 | 1013.3 |
| 20260905223853 | 35 | 102 | 0.0 | 0.0 | 0.00 | 0.00 | 0.00 | 55 | 1013.0 |
| 20260905223351 | 36 | 314 | 1.6 | 3.2 | 0.00 | 0.00 | 0.00 | 53 | 1013.0 |
| 20260905222846 | 36 | 116 | 0.0 | 0.0 | 0.00 | 0.00 | 0.00 | 50 | 1012.8 |
| 20260905222344 | 36 | 137 | 0.0 | 0.0 | 0.00 | 0.00 | 0.00 | 48 | 1012.9 |
| 20260905221841 | 36 | 164 | 1.6 | 1.6 | 0.00 | 0.00 | 0.00 | 45 | 1013.0 |
| 20260905221337 | 36 | 209 | 1.6 | 6.4 | 0.00 | 0.00 | 0.00 | 46 | 1013.0 |
| 20260905220832 | 37 | 221 | 4.8 | 4.8 | 0.00 | 0.00 | 0.00 | 45 | 1012.9 |
| 20260905220329 | 37 | 169 | 0.0 | 4.8 | 0.00 | 0.00 | 0.00 | 43 | 1013.0 |
| 20260905215827 | 37 | 123 | 1.6 | 4.8 | 0.00 | 0.00 | 0.00 | 43 | 1013.0 |
| 20260905215323 | 37 | 239 | 3.2 | 4.8 | 0.00 | 0.00 | 0.00 | 44 | 1013.1 |
| 20260905214820 | 37 | 216 | 6.4 | 6.4 | 0.00 | 0.00 | 0.00 | 45 | 1013.4 |
| 20260905214316 | 36 | 158 | 0.0 | 3.2 | 0.00 | 0.00 | 0.00 | 44 | 1013.4 |
| 20260905213816 | 36 | 301 | 4.8 | 6.4 | 0.00 | 0.00 | 0.00 | 46 | 1013.1 |
| 20260905213312 | 37 | 353 | 3.2 | 6.4 | 0.00 | 0.00 | 0.00 | 46 | 1013.3 |
| 20260905212812 | 37 | 4 | 3.2 | 4.8 | 0.00 | 0.00 | 0.00 | 45 | 1013.0 |
| 20260905212312 | 37 | 229 | 3.2 | 4.8 | 0.00 | 0.00 | 0.00 | 45 | 1013.4 |
| 20260905211807 | 37 | 279 | 3.2 | 6.4 | 0.00 | 0.00 | 0.00 | 45 | 1013.5 |
| 20260905211302 | 37 | 244 | 3.2 | 3.2 | 0.00 | 0.00 | 0.00 | 44 | 1013.5 |
| 20260905210759 | 37 | 177 | 1.6 | 3.2 | 0.00 | 0.00 | 0.00 | 47 | 1013.7 |
| 20260905210258 | 37 | 76 | 0.0 | 1.6 | 0.00 | 0.00 | 0.00 | 45 | 1013.6 |
| 20260905205757 | 37 | 172 | 1.6 | 4.8 | 0.00 | 0.00 | 0.00 | 44 | 1013.8 |
| 20260905205252 | 37 | 227 | 1.6 | 1.6 | 0.00 | 0.00 | 0.00 | 45 | 1013.7 |
| 20260905204751 | 36 | 201 | 0.0 | 3.2 | 0.00 | 0.00 | 0.00 | 47 | 1013.9 |
| 20260905204247 | 36 | 246 | 3.2 | 4.8 | 0.00 | 0.00 | 0.00 | 47 | 1014.0 |
| 20260905203746 | 36 | 345 | 6.4 | 6.4 | 0.00 | 0.00 | 0.00 | 47 | 1014.0 |
| 20260905203242 | 36 | 287 | 4.8 | 9.7 | 0.00 | 0.00 | 0.00 | 48 | 1014.0 |
| 20260905202737 | 36 | 334 | 4.8 | 9.7 | 0.00 | 0.00 | 0.00 | 48 | 1014.1 |
| 20260905202232 | 36 | 281 | 6.4 | 9.7 | 0.00 | 0.00 | 0.00 | 47 | 1014.0 |
| 20260905201728 | 36 | 1 | 8.0 | 9.7 | 0.00 | 0.00 | 0.00 | 45 | 1014.2 |
| 20260905201222 | 36 | 4 | 4.8 | 9.7 | 0.00 | 0.00 | 0.00 | 46 | 1014.2 |
| 20260905200718 | 36 | 306 | 8.0 | 12.9 | 0.00 | 0.00 | 0.00 | 48 | 1014.4 |
| 20260905200213 | 36 | 22 | 4.8 | 11.3 | 0.00 | 0.00 | 0.00 | 49 | 1014.4 |
| 20260905195711 | 37 | 111 | 0.0 | 3.2 | 0.00 | 0.00 | 0.00 | 45 | 1014.4 |
| 20260905195206 | 36 | 0 | 1.6 | 4.8 | 0.00 | 0.00 | 0.00 | 45 | 1014.5 |
| 20260905194702 | 36 | 284 | 4.8 | 4.8 | 0.00 | 0.00 | 0.00 | 48 | 1014.5 |
| 20260905194155 | 36 | 312 | 6.4 | 11.3 | 0.00 | 0.00 | 0.00 | 48 | 1014.6 |
| 20260905193650 | 36 | 215 | 4.8 | 4.8 | 0.00 | 0.00 | 0.00 | 47 | 1014.5 |
| 20260905193145 | 36 | 262 | 6.4 | 6.4 | 0.00 | 0.00 | 0.00 | 47 | 1014.6 |
| 20260905192640 | 36 | 314 | 3.2 | 12.9 | 0.00 | 0.00 | 0.00 | 47 | 1015.0 |
| 20260905192137 | 36 | 155 | 1.6 | 3.2 | 0.00 | 0.00 | 0.00 | 49 | 1015.0 |
| 20260905191636 | 35 | 288 | 3.2 | 3.2 | 0.00 | 0.00 | 0.00 | 50 | 1014.9 |
| 20260905191134 | 35 | 10 | 3.2 | 4.8 | 0.00 | 0.00 | 0.00 | 49 | 1015.2 |
| 20260905190632 | 36 | 300 | 3.2 | 4.8 | 0.00 | 0.00 | 0.00 | 47 | 1015.1 |
| 20260905190126 | 36 | 292 | 4.8 | 11.3 | 0.00 | 0.00 | 0.00 | 49 | 1015.2 |
| 20260905185625 | 36 | 311 | 9.7 | 12.9 | 0.00 | 0.00 | 0.00 | 48 | 1015.2 |
| 20260905185120 | 36 | 312 | 8.0 | 11.3 | 0.00 | 0.00 | 0.00 | 47 | 1015.1 |
| 20260905184614 | 36 | 336 | 4.8 | 9.7 | 0.00 | 0.00 | 0.00 | 46 | 1015.3 |
| 20260905184113 | 36 | 257 | 3.2 | 4.8 | 0.00 | 0.00 | 0.00 | 48 | 1015.4 |
| 20260905183612 | 36 | 310 | 6.4 | 6.4 | 0.00 | 0.00 | 0.00 | 49 | 1015.4 |
| 20260905183109 | 36 | 222 | 0.0 | 3.2 | 0.00 | 0.00 | 0.00 | 48 | 1015.4 |
| 20260905182608 | 35 | 5 | 3.2 | 6.4 | 0.00 | 0.00 | 0.00 | 51 | 1015.6 |
| 20260905182108 | 35 | 16 | 6.4 | 9.7 | 0.00 | 0.00 | 0.00 | 52 | 1015.8 |
| 20260905181608 | 35 | 304 | 3.2 | 4.8 | 0.00 | 0.00 | 0.00 | 50 | 1015.9 |
| 20260905181107 | 35 | 356 | 4.8 | 9.7 | 0.00 | 0.00 | 0.00 | 51 | 1015.8 |
| 20260905180602 | 35 | 327 | 4.8 | 4.8 | 0.00 | 0.00 | 0.00 | 51 | 1015.8 |
| 20260905180057 | 35 | 63 | 0.0 | 6.4 | 0.00 | 0.00 | 0.00 | 49 | 1015.9 |
| 20260905175556 | 36 | 134 | 1.6 | 1.6 | 0.00 | 0.00 | 0.00 | 48 | 1015.8 |
| 20260905175052 | 35 | 173 | 1.6 | 9.7 | 0.00 | 0.00 | 0.00 | 49 | 1016.2 |
| 20260905174547 | 35 | 139 | 0.0 | 11.3 | 0.00 | 0.00 | 0.00 | 50 | 1016.1 |
| 20260905174042 | 35 | 339 | 1.6 | 3.2 | 0.00 | 0.00 | 0.00 | 52 | 1016.2 |
| 20260905173539 | 35 | 135 | 1.6 | 6.4 | 0.00 | 0.00 | 0.00 | 52 | 1016.2 |
| 20260905173034 | 35 | 63 | 1.6 | 6.4 | 0.00 | 0.00 | 0.00 | 51 | 1016.2 |
| 20260905172533 | 35 | 305 | 4.8 | 11.3 | 0.00 | 0.00 | 0.00 | 55 | 1016.1 |
| 20260905172028 | 35 | 200 | 3.2 | 4.8 | 0.00 | 0.00 | 0.00 | 53 | 1016.2 |
| 20260905171525 | 35 | 343 | 6.4 | 9.7 | 0.00 | 0.00 | 0.00 | 53 | 1016.3 |
| 20260905171020 | 35 | 134 | 3.2 | 4.8 | 0.00 | 0.00 | 0.00 | 53 | 1016.3 |
| 20260905170517 | 35 | 20 | 6.4 | 6.4 | 0.00 | 0.00 | 0.00 | 53 | 1016.4 |
| 20260905170012 | 35 | 338 | 4.8 | 9.7 | 0.00 | 0.00 | 0.00 | 55 | 1016.7 |
| 20260905165507 | 35 | 31 | 6.4 | 11.3 | 0.00 | 0.00 | 0.00 | 54 | 1016.7 |
| 20260905165002 | 34 | 336 | 1.6 | 4.8 | 0.00 | 0.00 | 0.00 | 54 | 1016.7 |
| 20260905164455 | 34 | 355 | 4.8 | 9.7 | 0.00 | 0.00 | 0.00 | 56 | 1016.7 |
| 20260905163950 | 34 | 289 | 6.4 | 11.3 | 0.00 | 0.00 | 0.00 | 55 | 1016.7 |
| 20260905163447 | 34 | 167 | 1.6 | 3.2 | 0.00 | 0.00 | 0.00 | 56 | 1016.9 |
| 20260905162943 | 34 | 359 | 6.4 | 9.7 | 0.00 | 0.00 | 0.00 | 55 | 1017.0 |
| 20260905162438 | 34 | 345 | 6.4 | 11.3 | 0.00 | 0.00 | 0.00 | 56 | 1016.9 |
| 20260905161932 | 34 | 318 | 9.7 | 12.9 | 0.00 | 0.00 | 0.00 | 56 | 1017.0 |
| 20260905161432 | 34 | 0 | 4.8 | 11.3 | 0.00 | 0.00 | 0.00 | 56 | 1016.8 |
| 20260905160930 | 34 | 49 | 1.6 | 3.2 | 0.00 | 0.00 | 0.00 | 55 | 1017.1 |
| 20260905160424 | 34 | 348 | 8.0 | 9.7 | 0.00 | 0.00 | 0.00 | 57 | 1017.1 |
| 20260905155918 | 33 | 25 | 4.8 | 9.7 | 0.00 | 0.00 | 0.00 | 59 | 1017.2 |
| 20260905155418 | 33 | 355 | 8.0 | 12.9 | 0.00 | 0.00 | 0.00 | 59 | 1017.1 |
| 20260905154917 | 33 | 359 | 4.8 | 6.4 | 0.00 | 0.00 | 0.00 | 59 | 1017.0 |
| 20260905154413 | 33 | 298 | 3.2 | 4.8 | 0.00 | 0.00 | 0.00 | 61 | 1017.1 |
| 20260905153908 | 32 | 27 | 6.4 | 6.4 | 0.00 | 0.00 | 0.00 | 60 | 1016.9 |
| 20260905153404 | 32 | 290 | 3.2 | 9.7 | 0.00 | 0.00 | 0.00 | 62 | 1017.0 |
| 20260905152904 | 33 | 308 | 8.0 | 9.7 | 0.00 | 0.00 | 0.00 | 60 | 1017.0 |
| 20260905152403 | 32 | 319 | 1.6 | 6.4 | 0.00 | 0.00 | 0.00 | 62 | 1017.2 |
| 20260905151858 | 32 | 291 | 4.8 | 6.4 | 0.00 | 0.00 | 0.00 | 60 | 1017.1 |
| 20260905151349 | 32 | 283 | 4.8 | 6.4 | 0.00 | 0.00 | 0.00 | 60 | 1017.2 |
| 20260905150848 | 33 | 16 | 4.8 | 9.7 | 0.00 | 0.00 | 0.00 | 59 | 1017.3 |
| 20260905150343 | 32 | 81 | 1.6 | 6.4 | 0.00 | 0.00 | 0.00 | 60 | 1017.2 |
| 20260905145840 | 32 | 20 | 3.2 | 6.4 | 0.00 | 0.00 | 0.00 | 61 | 1017.2 |
| 20260905145335 | 32 | 12 | 6.4 | 6.4 | 0.00 | 0.00 | 0.00 | 61 | 1017.4 |
| 20260905144834 | 32 | 59 | 1.6 | 4.8 | 0.00 | 0.00 | 0.00 | 62 | 1017.2 |
| 20260905144329 | 32 | 347 | 0.0 | 1.6 | 0.00 | 0.00 | 0.00 | 65 | 1017.1 |
| 20260905143828 | 31 | 36 | 1.6 | 3.2 | 0.00 | 0.00 | 0.00 | 63 | 1017.2 |
| 20260905143322 | 31 | 86 | 1.6 | 1.6 | 0.00 | 0.00 | 0.00 | 66 | 1017.2 |
| 20260905142821 | 31 | 7 | 4.8 | 4.8 | 0.00 | 0.00 | 0.00 | 66 | 1017.3 |
| 20260905142316 | 31 | 52 | 1.6 | 4.8 | 0.00 | 0.00 | 0.00 | 65 | 1017.3 |
| 20260905141812 | 31 | 72 | 1.6 | 3.2 | 0.00 | 0.00 | 0.00 | 67 | 1017.4 |
| 20260905141307 | 30 | 68 | 1.6 | 1.6 | 0.00 | 0.00 | 0.00 | 69 | 1017.3 |
| 20260905140802 | 30 | 41 | 3.2 | 3.2 | 0.00 | 0.00 | 0.00 | 70 | 1017.5 |
| 20260905140302 | 30 | 55 | 3.2 | 3.2 | 0.00 | 0.00 | 0.00 | 70 | 1017.3 |
| 20260905135801 | 30 | 70 | 1.6 | 3.2 | 0.00 | 0.00 | 0.00 | 74 | 1017.3 |
| 20260905135257 | 30 | 283 | 1.6 | 3.2 | 0.00 | 0.00 | 0.00 | 74 | 1017.4 |
| 20260905134757 | 29 | 39 | 1.6 | 1.6 | 0.00 | 0.00 | 0.00 | 76 | 1017.4 |
| 20260905134250 | 29 | 61 | 0.0 | 0.0 | 0.00 | 0.00 | 0.00 | 77 | 1017.8 |
| 20260905133745 | 28 | 62 | 0.0 | 0.0 | 0.00 | 0.00 | 0.00 | 78 | 1017.7 |
| 20260905133240 | 28 | 61 | 1.6 | 1.6 | 0.00 | 0.00 | 0.00 | 80 | 1017.5 |
| 20260905132739 | 27 | 64 | 0.0 | 0.0 | 0.00 | 0.00 | 0.00 | 81 | 1017.6 |
| 20260905132230 | 27 | 64 | 0.0 | 0.0 | 0.00 | 0.00 | 0.00 | 87 | 1017.6 |
| 20260905131730 | 26 | 81 | 1.6 | 1.6 | 0.00 | 0.00 | 0.00 | 89 | 1017.9 |
| 20260905131225 | 25 | 72 | 0.0 | 1.6 | 0.00 | 0.00 | 0.00 | 96 | 1017.9 |
| 20260905130719 | 24 | 173 | 1.6 | 3.2 | 0.00 | 0.00 | 0.00 | 98 | 1017.7 |
| 20260905130214 | 24 | 85 | 0.0 | 0.0 | 0.00 | 0.00 | 0.00 | 99 | 1017.7 |
| 20260905125709 | 23 | 85 | 0.0 | 0.0 | 0.00 | 0.00 | 0.00 | 99 | 1017.7 |
| 20260905125204 | 23 | 85 | 0.0 | 0.0 | 0.00 | 0.00 | 0.00 | 99 | 1017.5 |
| 20260905124700 | 23 | 85 | 0.0 | 0.0 | 0.00 | 0.00 | 0.00 | 99 | 1017.6 |
| 20260905124156 | 23 | 85 | 0.0 | 0.0 | 0.00 | 0.00 | 0.00 | 99 | 1017.6 |
| 20260905123651 | 22 | 85 | 0.0 | 0.0 | 0.00 | 0.00 | 0.00 | 99 | 1017.7 |
| 20260905123148 | 22 | 85 | 0.0 | 0.0 | 0.00 | 0.00 | 0.00 | 99 | 1017.6 |
| 20260905122647 | 22 | 85 | 0.0 | 0.0 | 0.00 | 0.00 | 0.00 | 99 | 1017.6 |
| 20260905122142 | 22 | 85 | 0.0 | 0.0 | 0.00 | 0.00 | 0.00 | 99 | 1017.7 |
| 20260905121637 | 22 | 85 | 0.0 | 0.0 | 0.00 | 0.00 | 0.00 | 99 | 1017.6 |
| 20260905121132 | 22 | 85 | 0.0 | 0.0 | 0.00 | 0.00 | 0.00 | 99 | 1017.5 |
| 20260905120631 | 22 | 85 | 0.0 | 0.0 | 0.00 | 0.00 | 0.00 | 99 | 1017.4 |
| 20260905120126 | 22 | 85 | 0.0 | 0.0 | 0.00 | 0.00 | 0.00 | 99 | 1017.4 |
| 20260905115620 | 22 | 85 | 0.0 | 0.0 | 0.00 | 0.00 | 0.00 | 99 | 1017.3 |
| 20260905115115 | 22 | 85 | 0.0 | 0.0 | 0.00 | 0.00 | 0.00 | 99 | 1017.4 |
| 20260905114614 | 22 | 85 | 0.0 | 0.0 | 0.00 | 0.00 | 0.00 | 99 | 1017.2 |
| 20260905114112 | 22 | 85 | 0.0 | 0.0 | 0.00 | 0.00 | 0.00 | 99 | 1017.0 |
| 20260905113603 | 22 | 85 | 0.0 | 0.0 | 0.00 | 0.00 | 0.00 | 99 | 1017.3 |
| 20260905113057 | 21 | 85 | 0.0 | 0.0 | 0.00 | 0.00 | 0.00 | 99 | 1017.2 |
| 20260905112547 | 22 | 85 | 0.0 | 0.0 | 0.00 | 0.00 | 0.00 | 99 | 1016.8 |
| 20260905112043 | 22 | 85 | 0.0 | 0.0 | 0.00 | 0.00 | 0.00 | 99 | 1016.7 |
| 20260905111537 | 22 | 85 | 0.0 | 0.0 | 0.00 | 0.00 | 0.00 | 99 | 1016.7 |
| 20260905111036 | 22 | 85 | 0.0 | 0.0 | 0.00 | 0.00 | 0.00 | 99 | 1016.7 |
| 20260905110535 | 22 | 85 | 0.0 | 0.0 | 0.00 | 0.00 | 0.00 | 99 | 1016.5 |
| 20260905110030 | 22 | 84 | 0.0 | 0.0 | 0.00 | 0.00 | 0.00 | 99 | 1016.5 |
| 20260905105525 | 22 | 86 | 0.0 | 0.0 | 0.00 | 0.00 | 0.00 | 99 | 1016.6 |
| 20260905105024 | 22 | 86 | 0.0 | 0.0 | 0.00 | 0.00 | 0.00 | 99 | 1016.6 |
| 20260905104520 | 22 | 86 | 0.0 | 0.0 | 0.00 | 0.00 | 0.00 | 99 | 1016.6 |
| 20260905104020 | 22 | 86 | 0.0 | 0.0 | 0.00 | 0.00 | 0.00 | 99 | 1016.5 |
| 20260905103515 | 22 | 86 | 0.0 | 0.0 | 0.00 | 0.00 | 0.00 | 99 | 1016.5 |
| 20260905103011 | 22 | 86 | 0.0 | 0.0 | 0.00 | 0.00 | 0.00 | 99 | 1016.7 |
| 20260905102507 | 22 | 86 | 0.0 | 0.0 | 0.00 | 0.00 | 0.00 | 99 | 1016.5 |
| 20260905102003 | 22 | 86 | 0.0 | 0.0 | 0.00 | 0.00 | 0.00 | 99 | 1016.4 |
| 20260905101501 | 22 | 86 | 0.0 | 0.0 | 0.00 | 0.00 | 0.00 | 99 | 1016.2 |
| 20260905101000 | 22 | 86 | 0.0 | 0.0 | 0.00 | 0.00 | 0.00 | 99 | 1016.5 |
| 20260905100456 | 22 | 86 | 0.0 | 0.0 | 0.00 | 0.00 | 0.00 | 99 | 1016.2 |
| 20260905095955 | 22 | 86 | 0.0 | 0.0 | 0.00 | 0.00 | 0.00 | 99 | 1016.4 |
| 20260905095450 | 22 | 86 | 0.0 | 0.0 | 0.00 | 0.00 | 0.00 | 99 | 1016.3 |
| 20260905094945 | 22 | 86 | 0.0 | 0.0 | 0.00 | 0.00 | 0.00 | 99 | 1016.0 |
| 20260905094440 | 22 | 86 | 0.0 | 0.0 | 0.00 | 0.00 | 0.00 | 99 | 1016.0 |
| 20260905093939 | 22 | 86 | 0.0 | 0.0 | 0.00 | 0.00 | 0.00 | 99 | 1016.0 |
| 20260905093434 | 22 | 86 | 0.0 | 0.0 | 0.00 | 0.00 | 0.00 | 99 | 1016.0 |
| 20260905092930 | 22 | 86 | 0.0 | 0.0 | 0.00 | 0.00 | 0.00 | 99 | 1015.9 |
| 20260905092426 | 22 | 86 | 0.0 | 0.0 | 0.00 | 0.00 | 0.00 | 99 | 1015.9 |
| 20260905091920 | 22 | 86 | 0.0 | 0.0 | 0.00 | 0.00 | 0.00 | 99 | 1015.9 |
| 20260905091415 | 22 | 86 | 0.0 | 0.0 | 0.00 | 0.00 | 0.00 | 99 | 1015.9 |
| 20260905090914 | 22 | 86 | 0.0 | 0.0 | 0.00 | 0.00 | 0.00 | 99 | 1016.0 |
| 20260905090410 | 22 | 86 | 0.0 | 0.0 | 0.00 | 0.00 | 0.00 | 99 | 1015.7 |
| 20260905085908 | 22 | 86 | 0.0 | 0.0 | 0.00 | 0.00 | 0.00 | 99 | 1016.0 |
| 20260905085403 | 22 | 86 | 0.0 | 0.0 | 0.00 | 0.00 | 0.00 | 99 | 1015.9 |
| 20260905084859 | 22 | 86 | 0.0 | 0.0 | 0.00 | 0.00 | 0.00 | 99 | 1016.0 |
| 20260905084358 | 22 | 86 | 0.0 | 0.0 | 0.00 | 0.00 | 0.00 | 99 | 1015.9 |
| 20260905083853 | 22 | 86 | 0.0 | 0.0 | 0.00 | 0.00 | 0.00 | 99 | 1015.9 |
| 20260905083349 | 22 | 86 | 0.0 | 0.0 | 0.00 | 0.00 | 0.00 | 99 | 1015.9 |
| 20260905082844 | 22 | 86 | 0.0 | 0.0 | 0.00 | 0.00 | 0.00 | 99 | 1015.7 |
| 20260905082340 | 22 | 86 | 0.0 | 0.0 | 0.00 | 0.00 | 0.00 | 99 | 1016.0 |
| 20260905081835 | 22 | 86 | 0.0 | 0.0 | 0.00 | 0.00 | 0.00 | 99 | 1016.0 |
| 20260905081330 | 23 | 86 | 0.0 | 0.0 | 0.00 | 0.00 | 0.00 | 99 | 1016.0 |
| 20260905080829 | 23 | 86 | 0.0 | 0.0 | 0.00 | 0.00 | 0.00 | 99 | 1016.1 |
| 20260905080324 | 22 | 86 | 0.0 | 0.0 | 0.00 | 0.00 | 0.00 | 99 | 1016.1 |
| 20260905075822 | 22 | 86 | 0.0 | 0.0 | 0.00 | 0.00 | 0.00 | 99 | 1016.1 |
| 20260905075322 | 22 | 86 | 0.0 | 0.0 | 0.00 | 0.00 | 0.00 | 98 | 1016.1 |
| 20260905074821 | 23 | 85 | 0.0 | 0.0 | 0.00 | 0.00 | 0.00 | 98 | 1016.0 |
| 20260905074317 | 23 | 85 | 0.0 | 0.0 | 0.00 | 0.00 | 0.00 | 98 | 1015.9 |
| 20260905073813 | 23 | 86 | 0.0 | 0.0 | 0.00 | 0.00 | 0.00 | 98 | 1016.0 |
| 20260905073308 | 23 | 86 | 0.0 | 0.0 | 0.00 | 0.00 | 0.00 | 98 | 1016.1 |
| 20260905072807 | 23 | 86 | 0.0 | 0.0 | 0.00 | 0.00 | 0.00 | 98 | 1016.1 |
| 20260905072305 | 23 | 86 | 0.0 | 0.0 | 0.00 | 0.00 | 0.00 | 98 | 1016.2 |
| 20260905071800 | 23 | 86 | 0.0 | 0.0 | 0.00 | 0.00 | 0.00 | 98 | 1016.2 |
| 20260905071256 | 23 | 86 | 0.0 | 0.0 | 0.00 | 0.00 | 0.00 | 98 | 1016.1 |
| 20260905070750 | 23 | 86 | 0.0 | 0.0 | 0.00 | 0.00 | 0.00 | 98 | 1016.4 |
| 20260905070247 | 23 | 86 | 0.0 | 0.0 | 0.00 | 0.00 | 0.00 | 98 | 1016.4 |
| 20260905065745 | 23 | 86 | 0.0 | 0.0 | 0.00 | 0.00 | 0.00 | 98 | 1016.4 |
| 20260905065239 | 23 | 86 | 0.0 | 0.0 | 0.00 | 0.00 | 0.00 | 98 | 1016.4 |
| 20260905064734 | 23 | 85 | 0.0 | 0.0 | 0.00 | 0.00 | 0.00 | 98 | 1016.3 |
| 20260905064229 | 23 | 85 | 0.0 | 0.0 | 0.00 | 0.00 | 0.00 | 98 | 1016.6 |
| 20260905063727 | 23 | 85 | 0.0 | 0.0 | 0.00 | 0.00 | 0.00 | 98 | 1016.5 |
| 20260905063224 | 23 | 85 | 0.0 | 0.0 | 0.00 | 0.00 | 0.00 | 98 | 1016.5 |
| 20260905062719 | 23 | 85 | 0.0 | 0.0 | 0.00 | 0.00 | 0.00 | 98 | 1016.6 |
| 20260905062214 | 23 | 85 | 0.0 | 0.0 | 0.00 | 0.00 | 0.00 | 97 | 1016.6 |
| 20260905061713 | 23 | 85 | 0.0 | 0.0 | 0.00 | 0.00 | 0.00 | 97 | 1016.5 |
| 20260905061208 | 23 | 85 | 0.0 | 0.0 | 0.00 | 0.00 | 0.00 | 98 | 1016.6 |
| 20260905060703 | 23 | 85 | 0.0 | 0.0 | 0.00 | 0.00 | 0.00 | 98 | 1016.6 |
| 20260905060200 | 23 | 85 | 0.0 | 0.0 | 0.00 | 0.00 | 0.00 | 97 | 1016.6 |
| 20260905055658 | 23 | 85 | 0.0 | 0.0 | 0.00 | 0.00 | 0.00 | 97 | 1016.5 |
| 20260905055153 | 23 | 85 | 0.0 | 0.0 | 0.00 | 0.00 | 0.00 | 97 | 1016.5 |
| 20260905054649 | 23 | 85 | 0.0 | 0.0 | 0.00 | 0.00 | 0.00 | 97 | 1016.9 |
| 20260905054145 | 23 | 85 | 0.0 | 0.0 | 0.00 | 0.00 | 0.00 | 97 | 1016.8 |
| 20260905053644 | 23 | 84 | 0.0 | 0.0 | 0.00 | 0.00 | 0.00 | 96 | 1016.9 |
| 20260905053139 | 23 | 85 | 0.0 | 0.0 | 0.00 | 0.00 | 0.00 | 96 | 1016.8 |
| 20260905052639 | 24 | 85 | 0.0 | 0.0 | 0.00 | 0.00 | 0.00 | 96 | 1016.9 |
| 20260905052133 | 24 | 85 | 0.0 | 0.0 | 0.00 | 0.00 | 0.00 | 96 | 1016.8 |
| 20260905051629 | 24 | 85 | 0.0 | 0.0 | 0.00 | 0.00 | 0.00 | 96 | 1016.7 |
| 20260905051125 | 24 | 85 | 0.0 | 0.0 | 0.00 | 0.00 | 0.00 | 96 | 1016.8 |
| 20260905050621 | 24 | 85 | 0.0 | 0.0 | 0.00 | 0.00 | 0.00 | 96 | 1016.8 |
| 20260905050118 | 24 | 85 | 0.0 | 0.0 | 0.00 | 0.00 | 0.00 | 96 | 1016.6 |
| 20260905045612 | 24 | 84 | 0.0 | 0.0 | 0.00 | 0.00 | 0.00 | 96 | 1016.9 |
| 20260905045108 | 24 | 85 | 0.0 | 0.0 | 0.00 | 0.00 | 0.00 | 96 | 1016.6 |
| 20260905044608 | 24 | 85 | 0.0 | 0.0 | 0.00 | 0.00 | 0.00 | 96 | 1016.8 |
| 20260905044103 | 24 | 85 | 0.0 | 0.0 | 0.00 | 0.00 | 0.00 | 96 | 1016.7 |
| 20260905043601 | 24 | 84 | 0.0 | 0.0 | 0.00 | 0.00 | 0.00 | 95 | 1016.5 |
| 20260905043057 | 24 | 84 | 0.0 | 0.0 | 0.00 | 0.00 | 0.00 | 96 | 1016.7 |
| 20260905042555 | 25 | 108 | 0.0 | 0.0 | 0.00 | 0.00 | 0.00 | 96 | 1016.7 |
| 20260905042051 | 25 | 110 | 0.0 | 0.0 | 0.00 | 0.00 | 0.00 | 95 | 1016.7 |
| 20260905041546 | 25 | 110 | 0.0 | 0.0 | 0.00 | 0.00 | 0.00 | 95 | 1016.6 |
| 20260905041042 | 25 | 110 | 0.0 | 0.0 | 0.00 | 0.00 | 0.00 | 96 | 1016.7 |
| 20260905040541 | 25 | 110 | 0.0 | 0.0 | 0.00 | 0.00 | 0.00 | 95 | 1016.7 |
| 20260905040039 | 25 | 110 | 0.0 | 0.0 | 0.00 | 0.00 | 0.00 | 95 | 1016.6 |
| 20260905035535 | 25 | 110 | 0.0 | 0.0 | 0.00 | 0.00 | 0.00 | 95 | 1016.7 |
| 20260905035031 | 25 | 110 | 0.0 | 0.0 | 0.00 | 0.00 | 0.00 | 94 | 1016.7 |
| 20260905034527 | 25 | 109 | 0.0 | 0.0 | 0.00 | 0.00 | 0.00 | 95 | 1016.8 |
| 20260905034026 | 25 | 108 | 0.0 | 0.0 | 0.00 | 0.00 | 0.00 | 94 | 1017.0 |
| 20260905033520 | 25 | 108 | 0.0 | 0.0 | 0.00 | 0.00 | 0.00 | 94 | 1016.8 |
| 20260905033017 | 25 | 108 | 0.0 | 0.0 | 0.00 | 0.00 | 0.00 | 94 | 1017.1 |
| 20260905032511 | 25 | 108 | 0.0 | 0.0 | 0.00 | 0.00 | 0.00 | 93 | 1017.1 |
| 20260905032001 | 25 | 108 | 0.0 | 0.0 | 0.00 | 0.00 | 0.00 | 93 | 1016.9 |
| 20260905031456 | 25 | 108 | 0.0 | 0.0 | 0.00 | 0.00 | 0.00 | 92 | 1017.1 |
| 20260905030951 | 25 | 108 | 0.0 | 0.0 | 0.00 | 0.00 | 0.00 | 92 | 1017.0 |
| 20260905030447 | 25 | 100 | 0.0 | 0.0 | 0.00 | 0.00 | 0.00 | 92 | 1017.0 |
| 20260905025945 | 25 | 100 | 0.0 | 0.0 | 0.00 | 0.00 | 0.00 | 93 | 1017.2 |
| 20260905025441 | 25 | 101 | 0.0 | 1.6 | 0.00 | 0.00 | 0.00 | 93 | 1017.1 |
| 20260905024938 | 25 | 111 | 0.0 | 0.0 | 0.00 | 0.00 | 0.00 | 92 | 1017.2 |
| 20260905024438 | 25 | 111 | 0.0 | 0.0 | 0.00 | 0.00 | 0.00 | 92 | 1016.9 |
| 20260905023933 | 25 | 111 | 0.0 | 0.0 | 0.00 | 0.00 | 0.00 | 92 | 1016.8 |
| 20260905023428 | 26 | 111 | 0.0 | 0.0 | 0.00 | 0.00 | 0.00 | 90 | 1017.0 |
| 20260905022927 | 26 | 110 | 0.0 | 0.0 | 0.00 | 0.00 | 0.00 | 90 | 1017.0 |
| 20260905022422 | 26 | 111 | 0.0 | 0.0 | 0.00 | 0.00 | 0.00 | 91 | 1016.9 |
| 20260905021917 | 26 | 110 | 0.0 | 0.0 | 0.00 | 0.00 | 0.00 | 90 | 1016.8 |
| 20260905021412 | 26 | 110 | 0.0 | 0.0 | 0.00 | 0.00 | 0.00 | 90 | 1016.8 |
| 20260905020907 | 26 | 110 | 0.0 | 0.0 | 0.00 | 0.00 | 0.00 | 89 | 1016.7 |
| 20260905020406 | 26 | 110 | 0.0 | 0.0 | 0.00 | 0.00 | 0.00 | 90 | 1016.9 |
| 20260905015907 | 26 | 110 | 0.0 | 0.0 | 0.00 | 0.00 | 0.00 | 89 | 1016.8 |
| 20260905015405 | 26 | 110 | 0.0 | 0.0 | 0.00 | 0.00 | 0.00 | 88 | 1016.6 |
| 20260905014904 | 26 | 112 | 0.0 | 0.0 | 0.00 | 0.00 | 0.00 | 88 | 1016.6 |
| 20260905014400 | 26 | 112 | 0.0 | 0.0 | 0.00 | 0.00 | 0.00 | 88 | 1016.5 |
| 20260905013855 | 26 | 112 | 0.0 | 0.0 | 0.00 | 0.00 | 0.00 | 87 | 1016.5 |
| 20260905013351 | 27 | 110 | 0.0 | 0.0 | 0.00 | 0.00 | 0.00 | 86 | 1016.6 |
| 20260905012846 | 27 | 110 | 0.0 | 0.0 | 0.00 | 0.00 | 0.00 | 85 | 1016.2 |
| 20260905012342 | 27 | 116 | 0.0 | 0.0 | 0.00 | 0.00 | 0.00 | 85 | 1016.4 |
| 20260905011838 | 27 | 117 | 0.0 | 0.0 | 0.00 | 0.00 | 0.00 | 85 | 1016.4 |
| 20260905011334 | 27 | 117 | 0.0 | 0.0 | 0.00 | 0.00 | 0.00 | 86 | 1016.2 |
| 20260905010829 | 27 | 116 | 0.0 | 0.0 | 0.00 | 0.00 | 0.00 | 87 | 1016.5 |
| 20260905010323 | 27 | 116 | 0.0 | 0.0 | 0.00 | 0.00 | 0.00 | 87 | 1016.2 |
| 20260905005820 | 27 | 116 | 0.0 | 0.0 | 0.00 | 0.00 | 0.00 | 86 | 1016.4 |
| 20260905005316 | 27 | 116 | 0.0 | 0.0 | 0.00 | 0.00 | 0.00 | 87 | 1016.3 |
| 20260905004816 | 27 | 116 | 0.0 | 0.0 | 0.00 | 0.00 | 0.00 | 85 | 1016.4 |
| 20260905004310 | 28 | 116 | 0.0 | 0.0 | 0.00 | 0.00 | 0.00 | 85 | 1016.4 |
| 20260905003806 | 28 | 116 | 0.0 | 0.0 | 0.00 | 0.00 | 0.00 | 83 | 1016.2 |
| 20260905003302 | 28 | 116 | 0.0 | 0.0 | 0.00 | 0.00 | 0.00 | 82 | 1016.3 |
| 20260905002757 | 28 | 116 | 0.0 | 0.0 | 0.00 | 0.00 | 0.00 | 81 | 1016.2 |
| 20260905002256 | 28 | 116 | 0.0 | 0.0 | 0.00 | 0.00 | 0.00 | 81 | 1016.0 |
| 20260905001752 | 29 | 116 | 0.0 | 0.0 | 0.00 | 0.00 | 0.00 | 80 | 1016.1 |
| 20260905001251 | 30 | 116 | 0.0 | 0.0 | 0.00 | 0.00 | 0.00 | 78 | 1016.3 |
| 20260905000747 | 30 | 116 | 0.0 | 0.0 | 0.00 | 0.00 | 0.00 | 77 | 1016.1 |
| 20260905000242 | 30 | 116 | 0.0 | 0.0 | 0.00 | 0.00 | 0.00 | 72 | 1016.0 |
| 20260904235738 | 30 | 116 | 0.0 | 0.0 | 0.00 | 0.00 | 0.00 | 73 | 1016.1 |
| 20260904235232 | 31 | 116 | 0.0 | 0.0 | 0.00 | 0.00 | 0.00 | 73 | 1016.0 |
| 20260904234726 | 32 | 116 | 0.0 | 0.0 | 0.00 | 0.00 | 0.00 | 69 | 1016.2 |
| 20260904234222 | 33 | 116 | 0.0 | 0.0 | 0.00 | 0.00 | 0.00 | 68 | 1016.0 |
| 20260904233718 | 33 | 117 | 0.0 | 0.0 | 0.00 | 0.00 | 0.00 | 64 | 1016.0 |
| 20260904233214 | 35 | 118 | 0.0 | 0.0 | 0.00 | 0.00 | 0.00 | 61 | 1016.1 |
| 20260904232710 | 35 | 122 | 0.0 | 0.0 | 0.00 | 0.00 | 0.00 | 62 | 1016.2 |
| 20260904232206 | 35 | 124 | 0.0 | 0.0 | 0.00 | 0.00 | 0.00 | 61 | 1016.0 |
| 20260904231701 | 35 | 125 | 0.0 | 0.0 | 0.00 | 0.00 | 0.00 | 55 | 1015.8 |
| 20260904231156 | 35 | 126 | 0.0 | 1.6 | 0.00 | 0.00 | 0.00 | 55 | 1016.0 |
| 20260904230656 | 36 | 127 | 0.0 | 0.0 | 0.00 | 0.00 | 0.00 | 51 | 1015.9 |
| 20260904230151 | 36 | 127 | 0.0 | 0.0 | 0.00 | 0.00 | 0.00 | 49 | 1015.9 |
| 20260904225649 | 36 | 127 | 0.0 | 0.0 | 0.00 | 0.00 | 0.00 | 51 | 1016.0 |
| 20260904225144 | 36 | 127 | 0.0 | 0.0 | 0.00 | 0.00 | 0.00 | 51 | 1015.7 |